This demonstration page uses our WeatherBlox Daily Observations layout. Learn more.

Left ArrowRight Arrow

34.74481, -87.66753

Hourly Observations for March 9, 2022

Temp ( °F °C ) Dew Point ( °F °C ) Humidity (%) Winds ( mph kmh ) Pressure ( in mb ) Visibility ( mi km ) Precip ( " mm )
12:04 am 00:04 Cloudy with Mist and Fog 43 6.1 41 5 93 93 N 8 13 29.89 1012 4 6 0.00 0.00
12:48 am 00:48 Cloudy 45 7 41 5 87 87 NNW 6 9 29.90 1013 8 13 0.00 0.00
12:53 am 00:53 Cloudy 44 6.7 41 5 89 89 NNW 3 6 29.89 1012 8 13 0.00 0.00
1:07 am 01:07 Cloudy 44 6.7 42 5.6 93 93 NNW 5 7 29.90 1013 8 13 0.00 0.00
1:28 am 01:28 Cloudy with Light Rain 44 6.7 42 5.6 93 93 N 6 9 29.90 1013 2 3 0.00 0.00
1:48 am 01:48 Cloudy with Mist and Fog 45 7 43 6 93 93 NW 7 11 29.90 1013 3 5 0.01 0.25
1:49 am 01:49 Cloudy with Mist and Fog 44 6.7 42 5.6 93 93 NW 7 11 29.89 1012 3 5 0.01 0.25
1:58 am 01:58 Cloudy with Light Rain 44 6.7 42 5.6 93 93 NNW 8 13 29.89 1012 3 4 0.00 0.00
2:08 am 02:08 Cloudy with Light Rain 44 6.7 42 5.6 93 93 NNW 9 15 29.89 1012 3 4 0.00 0.00
2:27 am 02:27 Cloudy with Mist and Fog 44 6.7 42 5.6 93 93 NNW 6 9 29.89 1012 3 5 0.00 0.00
2:53 am 02:53 Cloudy with Mist and Fog 44 6.7 42 5.6 93 93 NW 6 9 29.88 1012 3 5 0.00 0.00
3:35 am 03:35 Cloudy with Mist and Fog 43 6.1 41 5 93 93 NNW 6 9 29.91 1013 3 5 0.00 0.00
3:45 am 03:45 Cloudy with Mist and Fog 43 6.1 41 5 93 93 NW 6 9 29.91 1013 3 5 0.00 0.00
3:53 am 03:53 Cloudy with Mist and Fog 43 6.1 41 5 93 93 NW 6 9 29.90 1012 4 6 0.00 0.00
4:10 am 04:10 Cloudy with Mist and Fog 43 6.1 41 5 93 93 NW 7 11 29.93 1013 6 10 0.00 0.00
4:53 am 04:53 Cloudy with Mist and Fog 43 6.1 40 4.4 89 89 NNW 9 15 29.94 1014 5 8 0.00 0.00
5:53 am 05:53 Cloudy 42 5.6 39 3.9 89 89 NNW 7 11 29.98 1015 9 14 0.00 0.00
6:50 am 06:50 Cloudy 43 6 39 4 87 87 NNW 8 13 30.03 1017 10 16 0.00 0.00
6:53 am 06:53 Cloudy 42 5.6 39 3.9 89 89 NNW 8 13 30.01 1016 10 16 0.00 0.00
7:53 am 07:53 Cloudy 43 6.1 38 3.3 82 82 NNW 6 9 30.04 1017 10 16 0.00 0.00
8:03 am 08:03 Cloudy 43 6.1 38 3.3 82 82 NNW 7 11 30.06 1018 10 16 0.00 0.00
8:53 am 08:53 Cloudy 44 6.7 38 3.3 79 79 N 6 9 30.03 1017 10 16 0.00 0.00
9:46 am 09:46 Cloudy 46 7.8 39 3.9 77 77 NNE 8 13 30.04 1017 10 16 0.00 0.00
9:53 am 09:53 Cloudy 46 7.8 39 3.9 77 77 N 7 11 30.04 1017 10 16 0.00 0.00
10:53 am 10:53 Cloudy 49 9.4 40 4.4 71 71 VRB 6 9 30.04 1017 10 16 0.00 0.00
11:53 am 11:53 Cloudy 48 8.9 39 3.9 71 71 N 3 6 30.03 1017 10 16 0.00 0.00
12:53 pm 12:53 Partly Cloudy 51 10.6 40 4.4 66 66 NNE 9 15 29.99 1016 10 16 0.00 0.00
1:16 pm 13:16 Mostly Cloudy 51 10.6 40 4.4 66 66 NNW 7 11 30.01 1016 10 16 0.00 0.00
1:53 pm 13:53 Mostly Cloudy 52 11.1 40 4.4 64 64 VRB 7 11 29.98 1015 10 16 0.00 0.00
2:06 pm 14:06 Partly Cloudy 53 11.7 40 4.4 61 61 ENE 9 15 29.99 1016 10 16 0.00 0.00
2:53 pm 14:53 Cloudy 52 11.1 39 3.9 61 61 ENE 6 9 30.01 1016 10 16 0.00 0.00
3:53 pm 15:53 Partly Cloudy 53 11.7 39 3.9 59 59 E 5 7 30.01 1016 10 16 0.00 0.00
4:53 pm 16:53 Mostly Sunny 52 11.1 40 4.4 64 64 SE 3 6 30.01 1016 10 16 0.00 0.00
5:53 pm 17:53 Sunny 50 10 41 5 71 71 E 6 9 30.00 1016 10 16 0.00 0.00
6:53 pm 18:53 Clear 48 8.9 40 4.4 74 74 ENE 3 6 30.00 1016 10 16 0.00 0.00
7:53 pm 19:53 Clear 45 7.2 41 5 86 86 Calm 30.01 1016 10 16 0.00 0.00
8:53 pm 20:53 Clear 44 6.7 40 4.4 85 85 SSE 3 6 30.05 1018 10 16 0.00 0.00
9:53 pm 21:53 Clear 43 6.1 40 4.4 89 89 NE 3 6 30.04 1017 10 16 0.00 0.00
10:53 pm 22:53 Clear 46 7.8 39 3.9 77 77 NE 6 9 30.02 1017 10 16 0.00 0.00
11:53 pm 23:53 Clear 46 7.8 39 3.9 77 77 NE 5 7 30.01 1016 10 16 0.00 0.00

Powered by AerisWeather